Terminal Aerodrome Forecast
Issued by NWS Salt Lake City, UT

Home | Current Version | Previous Version | Text Only | Print | Product List | Glossary On
Versions: 1 2 3 4 5 6 7 8 9 10 11 12 13 14 15 16 17 18 19 20 21 22 23 24 25 26 27 28 29 30 31 32 33 34 35 36 37 38 39 40 41 42 43 44 45 46 47 48 49 50
000
FTUS45 KSLC 260010 AAB
TAFSLC
TAF AMD
KSLC 260010Z 2600/2706 17010KT 4SM RA BR BKN050 BKN070
     FM260300 30010KT 6SM -RA BKN035 OVC050
     FM260600 34010KT 6SM -RA BKN035 OVC050
     FM261200 34004KT P6SM -SHRA SCT015 BKN030 OVC050
     FM261800 34005KT P6SM VCSH SCT030 BKN060=

USA.gov is the U.S. government's official web portal to all federal, state and local government web resources and services.